Weather History for North Bend, OR

Change the Weather History Date:

Monday, November 8, 2010

  Actual Average Record
Temperature  
Mean Temperature 49 °F 50 °F  
Max Temperature 54 °F 57 °F 72 °F (1929)
Min Temperature 43 °F 44 °F 28 °F (1920)
Degree Days  
Heating Degree Days 16 15  
Month to date heating degree days 75 115  
Since 1 July heating degree days 1066 1081  
Cooling Degree Days 0 0  
Month to date cooling degree days 0 0  
Year to date cooling degree days 3 2  
Moisture  
Dew Point 40 °F    
Average Humidity 76    
Maximum Humidity 83    
Minimum Humidity 61    
Precipitation  
Precipitation 0.20 in 0.32 in 2.92 in (1973)
Month to date precipitation 0.64 2.30  
Year to date precipitation 48.46 45.85  
Sea Level Pressure  
Sea Level Pressure 30.20 in    
Wind  
Wind Speed 8 mph (SSE)    
Max Wind Speed 12 mph    
Max Gust Speed 18 mph    
Visibility 10 miles    
Events      
T = Trace of Precipitation, MM = Missing Value Source: NWS Daily Summary

Daily Weather History Graph

Daily Weather History Graph

Search for Another Location

Airport:

Trip Planner

Search our weather history database for the weather conditions in past years. The results will help you decide how hot, cold, wet, or windy it might be!

Date:

Astronomy

Nov. 08, 2010 Rise Set
Actual Time 7:01 AM PST 4:59 PM PST
Civil Twilight 6:31 AM PST 5:29 PM PST
Nautical Twilight 5:57 AM PST 6:03 PM PST
Astronomical Twilight 5:23 AM PST 6:37 PM PST
Moon 9:59 AM PST (11/8) 6:56 PM PST (11/8)
Length of Visible Light 10h 58m
Length of Day
9h 57m
Waxing Crescent, 9% of the Moon is Illuminated
Nov 8
Waxing Crescent
Nov 13
First Quarter
Nov 21
Full
Nov 28
Last Quarter
Dec 5
New

Hourly Weather History & Observations

Time (PST) Temp. Windchill Dew Point Humidity Pressure Visibility Wind Dir Wind Speed Gust Speed Precip Events Conditions
12:15 AM 46.4 °F 41.5 °F 39.2 °F 76% 30.14 in 10.0 mi SE 10.4 mph - N/A   Mostly Cloudy
12:35 AM 46.4 °F 42.4 °F 39.2 °F 76% 30.14 in 10.0 mi SSE 8.1 mph - N/A   Overcast
12:55 AM 46.4 °F 42.9 °F 39.2 °F 76% 30.14 in 10.0 mi SE 6.9 mph - N/A   Overcast
1:15 AM 46.4 °F 42.4 °F 39.2 °F 76% 30.15 in 10.0 mi SSE 8.1 mph - N/A   Overcast
1:35 AM 46.4 °F 42.9 °F 39.2 °F 76% 30.15 in 10.0 mi SE 6.9 mph - N/A   Overcast
1:55 AM 46.4 °F 42.4 °F 39.2 °F 76% 30.15 in 10.0 mi SSE 8.1 mph - N/A   Overcast
2:15 AM 46.4 °F 42.4 °F 39.2 °F 76% 30.15 in 10.0 mi SSE 8.1 mph - N/A   Overcast
2:35 AM 44.6 °F 40.7 °F 39.2 °F 81% 30.16 in 10.0 mi SSE 6.9 mph - N/A   Overcast
2:55 AM 44.6 °F 40.2 °F 39.2 °F 81% 30.16 in 10.0 mi SE 8.1 mph - N/A   Mostly Cloudy
3:15 AM 44.6 °F 40.2 °F 39.2 °F 81% 30.16 in 10.0 mi SSE 8.1 mph - N/A   Overcast
3:35 AM 44.6 °F 39.7 °F 39.2 °F 81% 30.16 in 10.0 mi SSE 9.2 mph - N/A   Mostly Cloudy
4:15 AM 44.6 °F 41.4 °F 37.4 °F 76% 30.17 in 10.0 mi SE 5.8 mph - N/A   Overcast
4:35 AM 44.6 °F 39.7 °F 39.2 °F 81% 30.18 in 10.0 mi SE 9.2 mph - N/A   Overcast
4:55 AM 44.6 °F 40.2 °F 39.2 °F 81% 30.18 in 6.0 mi South 8.1 mph - N/A   Overcast
5:15 AM 44.6 °F 42.2 °F 39.2 °F 81% 30.19 in 7.0 mi East 4.6 mph - N/A   Overcast
5:35 AM 44.6 °F 39.2 °F 39.2 °F 81% 30.19 in 7.0 mi SSE 10.4 mph - N/A   Overcast
6:15 AM 44.6 °F 40.7 °F 37.4 °F 76% 30.19 in 10.0 mi SSE 6.9 mph - N/A   Mostly Cloudy
6:55 AM 42.8 °F 39.3 °F 37.4 °F 81% 30.21 in 9.0 mi South 5.8 mph - 0.01 in   Mostly Cloudy
7:15 AM 44.6 °F 40.2 °F 37.4 °F 76% 30.21 in 10.0 mi SE 8.1 mph - 0.03 in   Overcast
7:35 AM 44.6 °F 39.7 °F 37.4 °F 76% 30.21 in 10.0 mi SE 9.2 mph - 0.03 in   Mostly Cloudy
7:55 AM 44.6 °F 39.2 °F 37.4 °F 76% 30.22 in 10.0 mi SE 10.4 mph - 0.03 in   Partly Cloudy
8:15 AM 44.6 °F 40.2 °F 37.4 °F 76% 30.23 in 10.0 mi SSE 8.1 mph - N/A   Mostly Cloudy
8:35 AM 44.6 °F 39.7 °F 39.2 °F 81% 30.23 in 8.0 mi SSE 9.2 mph - N/A   Overcast
8:55 AM 46.4 °F 42.4 °F 39.2 °F 76% 30.24 in 10.0 mi South 8.1 mph - N/A   Overcast
9:15 AM 46.4 °F 42.4 °F 41.0 °F 81% 30.24 in 10.0 mi SSE 8.1 mph - N/A   Overcast
9:35 AM 48.2 °F - 39.2 °F 71% 30.24 in 10.0 mi SSE 10.4 mph - N/A   Mostly Cloudy
9:55 AM 48.2 °F - 39.2 °F 71% 30.25 in 10.0 mi SSE 11.5 mph - N/A   Overcast
10:15 AM 48.2 °F - 41.0 °F 76% 30.25 in 10.0 mi SSE 10.4 mph - N/A   Mostly Cloudy
10:35 AM 50.0 °F - 42.8 °F 76% 30.26 in 10.0 mi SSE 8.1 mph - N/A   Mostly Cloudy
10:55 AM 51.8 °F - 42.8 °F 71% 30.26 in 10.0 mi South 10.4 mph - N/A   Overcast
11:15 AM 51.8 °F - 42.8 °F 71% 30.25 in 10.0 mi South 9.2 mph - N/A   Mostly Cloudy
11:55 AM 53.6 °F - 42.8 °F 67% 30.24 in 10.0 mi South 6.9 mph - N/A   Overcast
12:15 PM 51.8 °F - 42.8 °F 71% 30.23 in 10.0 mi SSW 6.9 mph - N/A   Overcast
12:35 PM 51.8 °F - 41.0 °F 67% 30.23 in 10.0 mi WSW 10.4 mph - 0.01 in   Mostly Cloudy
12:55 PM 50.0 °F - 37.4 °F 62% 30.23 in 10.0 mi NW 6.9 mph - 0.05 in   Overcast
1:15 PM 48.2 °F - 41.0 °F 76% 30.23 in 9.0 mi NNW 10.4 mph - 0.01 in   Overcast
1:35 PM 50.0 °F - 41.0 °F 71% 30.23 in 10.0 mi WSW 11.5 mph 16.1 mph 0.01 in   Mostly Cloudy
1:55 PM 50.0 °F - 39.2 °F 66% 30.23 in 10.0 mi SSW 9.2 mph - 0.01 in   Partly Cloudy
2:15 PM 51.8 °F - 41.0 °F 67% 30.23 in 10.0 mi SW 5.8 mph - N/A   Mostly Cloudy
2:55 PM 51.8 °F - 41.0 °F 67% 30.22 in 10.0 mi SSW 8.1 mph - N/A   Mostly Cloudy
3:15 PM 51.8 °F - 41.0 °F 67% 30.22 in 10.0 mi WSW 13.8 mph 18.4 mph 0.01 in   Overcast
3:35 PM 50.0 °F - 42.8 °F 76% 30.22 in 10.0 mi SSW 8.1 mph - 0.02 in   Overcast
3:55 PM 48.2 °F - 41.0 °F 76% 30.22 in 10.0 mi South 6.9 mph - 0.02 in   Overcast
4:15 PM 50.0 °F - 41.0 °F 71% 30.22 in 10.0 mi South 5.8 mph - N/A   Mostly Cloudy
4:35 PM 48.2 °F - 41.0 °F 76% 30.22 in 10.0 mi South 5.8 mph - N/A   Mostly Cloudy
4:55 PM 46.4 °F 43.5 °F 39.2 °F 76% 30.22 in 10.0 mi South 5.8 mph - N/A   Scattered Clouds
5:35 PM 46.4 °F 42.9 °F 39.2 °F 76% 30.22 in 10.0 mi South 6.9 mph - N/A   Overcast
5:55 PM 46.4 °F 42.4 °F 39.2 °F 76% 30.22 in 10.0 mi SSE 8.1 mph - N/A   Mostly Cloudy
6:15 PM 46.4 °F 42.9 °F 39.2 °F 76% 30.22 in 10.0 mi SSE 6.9 mph - N/A   Mostly Cloudy
6:35 PM 46.4 °F 42.4 °F 39.2 °F 76% 30.21 in 10.0 mi SSE 8.1 mph - N/A   Mostly Cloudy
6:55 PM 46.4 °F 41.9 °F 41.0 °F 81% 30.21 in 10.0 mi SSE 9.2 mph - N/A   Overcast
7:15 PM 46.4 °F 41.9 °F 39.2 °F 76% 30.21 in 10.0 mi SSE 9.2 mph - N/A   Overcast
7:35 PM 44.6 °F 40.2 °F 39.2 °F 81% 30.20 in 10.0 mi SSE 8.1 mph - N/A   Mostly Cloudy
7:55 PM 44.6 °F 40.2 °F 37.4 °F 76% 30.21 in 10.0 mi SSE 8.1 mph - N/A   Mostly Cloudy
8:15 PM 44.6 °F 39.2 °F 39.2 °F 81% 30.20 in 10.0 mi SE 10.4 mph - N/A   Overcast
8:35 PM 44.6 °F 39.7 °F 39.2 °F 81% 30.19 in 10.0 mi SSE 9.2 mph - N/A   Overcast
8:55 PM 44.6 °F 39.7 °F 37.4 °F 76% 30.19 in 10.0 mi SE 9.2 mph - N/A   Mostly Cloudy
9:15 PM 44.6 °F 39.7 °F 37.4 °F 76% 30.19 in 10.0 mi SE 9.2 mph - N/A   Mostly Cloudy
9:35 PM 44.6 °F 39.2 °F 37.4 °F 76% 30.19 in 10.0 mi SE 10.4 mph - N/A   Mostly Cloudy
9:55 PM 42.8 °F 37.5 °F 37.4 °F 81% 30.18 in 10.0 mi SSE 9.2 mph - N/A   Mostly Cloudy
10:15 PM 42.8 °F 37.5 °F 37.4 °F 81% 30.17 in 10.0 mi SSE 9.2 mph - N/A   Mostly Cloudy
10:35 PM 42.8 °F 38.0 °F 35.6 °F 76% 30.17 in 10.0 mi SSE 8.1 mph - N/A   Scattered Clouds
10:55 PM 42.8 °F 37.0 °F 35.6 °F 76% 30.16 in 10.0 mi SSE 10.4 mph - N/A   Mostly Cloudy
11:15 PM 42.8 °F 37.0 °F 35.6 °F 76% 30.16 in 10.0 mi SSE 10.4 mph - N/A   Scattered Clouds
11:35 PM 42.8 °F 37.0 °F 35.6 °F 76% 30.16 in 10.0 mi SSE 10.4 mph - N/A   Mostly Cloudy
11:55 PM 42.8 °F 37.0 °F 35.6 °F 76% 30.15 in 10.0 mi SE 10.4 mph - N/A   Overcast